Location: Unspecified
(0.0000°N, 0.0000°E)
Time: 03:50:24
(UTC+00:00)

Courier 1B Rocket - Pass Details

Date: 16 December 2018
Orbit: 920 x 1202 km, 28.3° (Epoch: 16 January)

Event Time Altitude Azimuth Distance (km) Brightness Sun altitude
Rises 14:43:18 0° 319° (NW) 3,965 8.3 43.1°
Reaches altitude 10° 14:46:28 10° 330° (NNW) 3,043 7.7 42.4°
Maximum altitude 14:52:55 30° 28° (NNE) 1,993 6.5 41.1°
Drops below altitude 10° 14:59:30 10° 86° (E) 3,128 7.3 39.7°
Sets 15:02:48 0° 96° (E) 4,092 7.9 39.0°
